GW2427 Weather Reports


Display with metric or nautical units.
time (UTC)temp
F
wind
direction
speed
MPH
gust
MPH
rain 1hr
in
rain 24hr
in
rain mn
in
humidity
%
barometer
mb
20260906112430 71 87 0.0 0.0 0.00 0.00 0.00 98 1009.2
20260906111926 71 86 0.0 0.0 0.00 0.00 0.00 98 1008.8
20260906111425 71 86 0.0 0.0 0.00 0.00 0.00 98 1008.9
20260906110920 70 85 0.0 0.0 0.00 0.00 0.00 98 1008.9
20260906110416 70 88 0.0 0.0 0.00 0.00 0.00 98 1008.8
20260906105915 70 86 0.0 0.0 0.00 0.00 0.00 98 1008.6
20260906105411 70 84 0.0 0.0 0.00 0.00 0.00 98 1008.7
20260906104906 70 82 0.0 0.0 0.00 0.00 0.00 98 1008.8
20260906104405 70 82 0.0 0.0 0.00 0.00 0.00 98 1008.5
20260906103904 70 86 0.0 0.0 0.00 0.00 0.00 98 1008.5
20260906103402 70 86 0.0 0.0 0.00 0.00 0.00 98 1008.6
20260906102858 70 86 0.0 0.0 0.00 0.00 0.00 98 1008.5
20260906102357 70 84 0.0 0.0 0.00 0.00 0.00 98 1008.5
20260906101852 70 82 0.0 0.0 0.00 0.00 0.00 98 1008.3
20260906101347 70 81 0.0 0.0 0.00 0.00 0.00 98 1008.3
20260906100843 70 83 0.0 0.0 0.00 0.00 0.00 98 1008.4
20260906100342 70 86 0.0 0.0 0.00 0.00 0.00 98 1008.4
20260906095837 69 84 0.0 0.0 0.00 0.00 0.00 98 1008.2
20260906095332 70 79 0.0 0.0 0.00 0.00 0.00 98 1008.1
20260906094831 70 82 0.0 0.0 0.00 0.00 0.00 98 1008.1
20260906094326 70 91 0.0 0.0 0.00 0.00 0.00 98 1008.1
20260906093823 70 85 0.0 0.0 0.00 0.00 0.00 98 1007.9
20260906093318 70 77 0.0 0.0 0.00 0.00 0.00 98 1008.1
20260906092813 70 81 0.0 0.0 0.00 0.00 0.00 98 1007.8
20260906092308 70 85 0.0 0.0 0.00 0.00 0.00 98 1008.1
20260906091804 70 79 0.0 0.0 0.00 0.00 0.00 98 1008.0
20260906091300 70 80 0.0 0.0 0.00 0.00 0.00 98 1008.0
20260906090756 70 99 0.0 0.0 0.00 0.00 0.00 98 1008.1
20260906090255 70 89 0.0 0.0 0.00 0.00 0.00 98 1007.8
20260906085754 70 94 0.0 0.0 0.00 0.00 0.00 98 1008.0
20260906085253 70 88 0.0 0.0 0.00 0.00 0.00 98 1007.6
20260906084748 71 88 0.0 0.0 0.00 0.00 0.00 98 1007.7
20260906084242 71 86 0.0 0.0 0.00 0.00 0.00 98 1007.7
20260906083737 71 83 0.0 0.0 0.00 0.00 0.00 98 1008.0
20260906083232 71 84 0.0 0.0 0.00 0.00 0.00 98 1007.9
20260906082727 71 71 0.0 0.0 0.00 0.00 0.00 98 1007.6
20260906082222 71 92 0.0 0.0 0.00 0.00 0.00 98 1007.8
20260906081718 71 85 0.0 0.0 0.00 0.00 0.00 98 1008.0
20260906081214 71 89 0.0 0.0 0.00 0.00 0.00 98 1007.8
20260906080710 71 83 0.0 0.0 0.00 0.00 0.00 98 1007.9
20260906080206 71 83 0.0 0.0 0.00 0.00 0.00 98 1007.7
20260906075705 71 89 0.0 0.0 0.00 0.00 0.00 98 1007.9
20260906075201 71 88 0.0 0.0 0.00 0.00 0.00 98 1007.6
20260906074656 71 84 0.0 0.0 0.00 0.00 0.00 98 1007.9
20260906074154 70 80 0.0 0.0 0.00 0.00 0.00 98 1007.9
20260906073650 71 82 0.0 0.0 0.00 0.00 0.00 98 1007.8
20260906073146 70 85 0.0 0.0 0.00 0.00 0.00 98 1007.7
20260906072640 70 87 0.0 0.0 0.00 0.00 0.00 98 1008.0
20260906072135 71 79 0.0 0.0 0.00 0.00 0.00 98 1007.7
20260906071627 71 86 0.0 0.0 0.00 0.00 0.00 98 1007.7
20260906071126 71 78 0.0 0.0 0.00 0.00 0.00 98 1007.7
20260906070623 71 84 0.0 0.0 0.00 0.00 0.00 98 1007.7
20260906070119 71 81 0.0 0.0 0.00 0.00 0.00 98 1007.7
20260906065618 71 83 0.0 0.0 0.00 0.00 0.00 98 1007.7
20260906065114 71 82 0.0 0.0 0.00 0.00 0.00 98 1008.0
20260906064609 71 82 0.0 0.0 0.00 0.00 0.00 98 1008.3
20260906064104 71 78 0.0 0.0 0.00 0.00 0.00 98 1008.3
20260906063559 71 92 0.0 0.0 0.00 0.00 0.00 98 1008.1
20260906063055 71 96 0.0 0.0 0.00 0.00 0.00 98 1008.4
20260906062551 71 83 0.0 0.0 0.00 0.00 0.00 98 1008.4
20260906062044 71 82 0.0 0.0 0.00 0.00 0.00 98 1008.2
20260906061541 71 83 0.0 0.0 0.00 0.00 0.00 98 1008.4
20260906061040 71 75 0.0 0.0 0.00 0.00 0.00 98 1008.2
20260906060537 71 86 0.0 0.0 0.00 0.00 0.00 98 1008.0
20260906060034 71 81 0.0 0.0 0.00 0.00 0.00 98 1008.1
20260906055529 71 82 0.0 0.0 0.00 0.00 0.00 98 1008.1
20260906055025 71 83 0.0 0.0 0.00 0.00 0.00 98 1008.1
20260906054524 71 83 0.0 0.0 0.00 0.00 0.00 98 1008.2
20260906054020 71 86 0.0 0.0 0.00 0.00 0.00 98 1008.2
20260906053516 71 82 0.0 0.0 0.00 0.00 0.00 98 1007.9
20260906053011 71 76 0.0 0.0 0.00 0.00 0.00 98 1007.9
20260906052507 72 81 0.0 0.0 0.00 0.00 0.00 98 1008.1
20260906052004 72 84 0.0 0.0 0.00 0.00 0.00 98 1007.9
20260906051459 72 80 0.0 0.0 0.00 0.00 0.00 98 1008.2
20260906050954 71 83 0.0 0.0 0.00 0.00 0.00 98 1008.2
20260906050453 71 81 0.0 0.0 0.00 0.00 0.00 98 1008.4
20260906045948 72 80 0.0 0.0 0.00 0.00 0.00 98 1008.3
20260906045447 72 83 0.0 0.0 0.00 0.00 0.00 98 1008.2
20260906044943 72 86 0.0 0.0 0.00 0.00 0.00 98 1008.2
20260906044438 72 80 0.0 0.0 0.00 0.00 0.00 98 1008.4
20260906043933 72 79 0.0 0.0 0.00 0.00 0.00 98 1008.6
20260906043429 72 83 0.0 0.0 0.00 0.00 0.00 98 1008.4
20260906042925 72 76 0.0 0.0 0.00 0.00 0.00 98 1008.5
20260906042424 72 77 0.0 0.0 0.00 0.00 0.00 98 1008.3
20260906041919 73 83 0.0 0.0 0.00 0.00 0.00 98 1008.2
20260906041415 73 73 0.0 0.0 0.00 0.00 0.00 98 1008.2
20260906040915 73 49 1.0 1.0 0.00 0.00 0.00 98 1008.6
20260906040410 73 80 0.0 0.0 0.00 0.00 0.00 98 1008.2
20260906035905 73 74 0.0 0.0 0.00 0.32 0.32 98 1008.1
20260906035401 73 59 0.0 1.0 0.00 0.32 0.32 97 1008.2
20260906034855 73 77 0.0 0.0 0.00 0.32 0.32 98 1008.5
20260906034350 73 78 0.0 0.0 0.00 0.32 0.32 97 1008.3
20260906033846 73 68 0.0 0.0 0.00 0.32 0.32 97 1008.1
20260906033345 73 71 0.0 0.0 0.00 0.32 0.32 97 1008.6
20260906032842 73 74 0.0 0.0 0.00 0.32 0.32 97 1008.6
20260906032337 73 78 0.0 0.0 0.00 0.32 0.32 97 1008.5
20260906031832 73 71 0.0 0.0 0.00 0.32 0.32 97 1008.4
20260906031328 73 72 0.0 0.0 0.00 0.32 0.32 97 1008.7
20260906030827 73 83 0.0 0.0 0.00 0.32 0.32 97 1008.9
20260906030323 73 72 0.0 0.0 0.00 0.32 0.32 97 1008.7
20260906025817 73 84 0.0 0.0 0.00 0.32 0.32 97 1008.7
20260906025311 73 89 0.0 0.0 0.00 0.32 0.32 97 1008.8
20260906024810 73 89 0.0 0.0 0.00 0.32 0.32 97 1008.8
20260906024309 73 79 0.0 0.0 0.00 0.32 0.32 96 1008.8
20260906023805 73 84 0.0 0.0 0.00 0.32 0.32 96 1008.8
20260906023300 73 90 0.0 0.0 0.00 0.32 0.32 96 1009.1
20260906022756 73 92 0.0 0.0 0.00 0.32 0.32 96 1008.9
20260906022251 73 81 0.0 0.0 0.00 0.32 0.32 95 1009.1
20260906021747 73 87 0.0 0.0 0.00 0.32 0.32 95 1009.1
20260906021246 73 78 0.0 0.0 0.00 0.32 0.32 95 1008.9
20260906020740 73 82 0.0 0.0 0.00 0.32 0.32 94 1009.1
20260906020235 73 85 0.0 0.0 0.00 0.32 0.32 94 1009.2
20260906015729 73 87 0.0 0.0 0.00 0.32 0.32 93 1009.0
20260906015228 73 77 0.0 0.0 0.00 0.32 0.32 93 1009.0
20260906014722 73 107 2.0 2.0 0.00 0.32 0.32 93 1009.1
20260906014218 73 86 0.0 0.0 0.00 0.32 0.32 92 1009.3
20260906013715 73 85 0.0 0.0 0.00 0.32 0.32 92 1009.3
20260906013214 73 92 0.0 0.0 0.00 0.32 0.32 92 1009.1
20260906012709 73 93 0.0 0.0 0.00 0.32 0.32 92 1009.0
20260906012204 73 84 0.0 0.0 0.00 0.32 0.32 92 1009.0
20260906011659 73 88 0.0 0.0 0.00 0.32 0.32 92 1009.3
20260906011154 72 95 0.0 0.0 0.00 0.32 0.32 91 1009.0
20260906010649 72 101 0.0 0.0 0.00 0.32 0.32 91 1008.9
20260906010146 72 93 0.0 0.0 0.00 0.32 0.32 91 1008.9
20260906005645 72 78 0.0 0.0 0.00 0.32 0.32 90 1008.9
20260906005144 72 138 3.0 5.0 0.00 0.32 0.32 90 1008.8
20260906004643 72 105 0.0 0.0 0.00 0.32 0.32 90 1008.9
20260906004139 72 92 0.0 1.0 0.00 0.32 0.32 89 1009.4
20260906003634 72 92 0.0 0.0 0.05 0.32 0.32 89 1009.4
20260906003130 72 90 0.0 0.0 0.05 0.32 0.32 89 1009.7
20260906002624 72 74 0.0 0.0 0.07 0.31 0.31 89 1009.5
20260906002119 72 83 0.0 0.0 0.07 0.31 0.31 88 1009.6
20260906001609 72 94 0.0 0.0 0.00 0.30 0.30 88 1009.4
20260906001109 72 80 0.0 0.0 0.00 0.30 0.30 88 1009.2
20260906000605 72 65 0.0 0.0 0.00 0.30 0.30 87 1009.3
20260906000100 72 81 0.0 0.0 0.00 0.30 0.30 87 1008.4
20260905235559 72 116 2.0 2.0 0.00 0.30 0.30 86 1008.6
20260905235054 72 86 0.0 0.0 0.00 0.30 0.30 86 1008.4
20260905234549 72 86 0.0 0.0 0.00 0.30 0.30 86 1008.3
20260905234045 72 86 0.0 0.0 0.00 0.30 0.30 86 1008.5
20260905233544 72 87 0.0 0.0 0.00 0.30 0.30 85 1008.4
20260905233044 72 85 0.0 0.0 0.00 0.30 0.30 85 1008.3
20260905232540 72 78 0.0 0.0 0.05 0.30 0.30 84 1008.6
20260905232035 72 73 0.0 1.0 0.05 0.30 0.30 84 1008.7
20260905231530 72 118 1.0 1.0 0.07 0.29 0.29 83 1008.7
20260905231027 72 36 2.0 2.0 0.00 0.28 0.28 83 1008.5
20260905230526 72 87 0.0 0.0 0.00 0.28 0.28 82 1008.1
20260905230024 72 70 0.0 0.0 0.05 0.28 0.28 81 1008.2
20260905225519 72 79 0.0 0.0 0.12 0.28 0.28 80 1007.8
20260905225015 72 46 2.0 2.0 0.19 0.27 0.27 79 1007.8
20260905224509 72 137 1.0 1.0 0.24 0.26 0.26 78 1008.0
20260905224009 73 105 1.0 1.0 1.32 0.24 0.24 76 1007.6
20260905223507 74 320 2.0 3.0 1.25 0.21 0.21 75 1007.5
20260905223002 79 9 7.0 9.0 0.31 0.05 0.05 68 1007.7
20260905222502 81 300 6.0 8.0 0.00 0.00 0.00 60 1007.3
20260905221957 84 36 8.0 15.0 0.00 0.00 0.00 57 1006.8
20260905221454 86 338 10.0 13.0 0.00 0.00 0.00 57 1006.7
20260905220949 90 6 5.0 6.0 0.00 0.00 0.00 71 1006.5
20260905220445 90 71 0.0 1.0 0.00 0.00 0.00 70 1006.2
20260905215944 91 351 3.0 3.0 0.00 0.00 0.00 69 1006.4
20260905215440 91 83 0.0 0.0 0.00 0.00 0.00 68 1006.2
20260905214936 91 97 1.0 1.0 0.00 0.00 0.00 66 1007.1
20260905214431 92 99 1.0 1.0 0.00 0.00 0.00 64 1006.7
20260905213926 93 86 0.0 0.0 0.00 0.00 0.00 63 1006.3
20260905213422 93 77 1.0 2.0 0.00 0.00 0.00 62 1006.2
20260905212917 94 5 0.0 0.0 0.00 0.00 0.00 61 1006.3
20260905212412 95 336 3.0 3.0 0.00 0.00 0.00 59 1006.1
20260905211911 96 6 2.0 3.0 0.00 0.00 0.00 59 1005.9
20260905211407 96 29 1.0 1.0 0.00 0.00 0.00 59 1006.2
20260905210902 96 346 0.0 1.0 0.00 0.00 0.00 59 1006.1
20260905210357 96 56 1.0 2.0 0.00 0.00 0.00 59 1005.9
20260905205856 97 20 2.0 2.0 0.00 0.00 0.00 59 1005.8
20260905205351 97 71 0.0 0.0 0.00 0.00 0.00 58 1005.9
20260905204850 96 83 1.0 2.0 0.00 0.00 0.00 60 1006.1
20260905204347 95 35 1.0 2.0 0.00 0.00 0.00 60 1005.9
20260905203845 95 67 1.0 1.0 0.00 0.00 0.00 61 1005.8
20260905203341 95 62 1.0 1.0 0.00 0.00 0.00 61 1005.8
20260905202837 95 57 1.0 1.0 0.00 0.00 0.00 60 1006.1
20260905202331 96 49 1.0 1.0 0.00 0.00 0.00 60 1006.0
20260905201827 95 44 2.0 2.0 0.00 0.00 0.00 60 1006.1
20260905201322 94 4 2.0 2.0 0.00 0.00 0.00 62 1006.0
20260905200816 93 60 0.0 0.0 0.00 0.00 0.00 67 1006.3
20260905200312 93 79 0.0 0.0 0.00 0.00 0.00 67 1006.0
20260905195810 92 73 0.0 0.0 0.00 0.00 0.00 66 1006.3
20260905195306 93 73 0.0 0.0 0.00 0.00 0.00 65 1006.3
20260905194801 93 78 0.0 0.0 0.00 0.00 0.00 65 1006.2
20260905194255 94 65 1.0 2.0 0.00 0.00 0.00 64 1006.5
20260905193754 93 5 2.0 2.0 0.00 0.00 0.00 65 1006.6
20260905193249 93 350 2.0 3.0 0.00 0.00 0.00 67 1006.8
20260905192739 93 77 0.0 0.0 0.00 0.00 0.00 64 1006.6
20260905192235 94 66 1.0 1.0 0.00 0.00 0.00 62 1006.6
20260905191734 94 75 0.0 0.0 0.00 0.00 0.00 61 1006.7
20260905191233 95 348 3.0 5.0 0.00 0.00 0.00 60 1006.9
20260905190732 95 54 1.0 1.0 0.00 0.00 0.00 61 1007.0
20260905190231 96 23 1.0 1.0 0.00 0.00 0.00 58 1007.2
20260905185730 95 47 2.0 2.0 0.00 0.00 0.00 60 1007.1
20260905185225 94 34 2.0 2.0 0.00 0.00 0.00 61 1007.2
20260905184719 95 60 2.0 3.0 0.00 0.00 0.00 60 1007.3
20260905184218 95 332 2.0 2.0 0.00 0.00 0.00 60 1007.4
20260905183717 96 51 1.0 1.0 0.00 0.00 0.00 60 1007.5
20260905183213 97 87 1.0 1.0 0.00 0.00 0.00 57 1007.3
20260905182712 96 67 0.0 1.0 0.00 0.00 0.00 58 1007.3
20260905182207 96 65 3.0 3.0 0.00 0.00 0.00 58 1007.4
20260905181702 95 56 1.0 2.0 0.00 0.00 0.00 59 1007.7
20260905181201 95 323 1.0 2.0 0.00 0.00 0.00 60 1007.8
20260905180655 95 331 4.0 5.0 0.00 0.00 0.00 58 1007.7
20260905180151 95 83 1.0 2.0 0.00 0.00 0.00 59 1008.0
20260905175650 95 313 2.0 2.0 0.00 0.00 0.00 58 1008.3
20260905175146 95 51 1.0 2.0 0.00 0.00 0.00 59 1008.1
20260905174641 95 60 1.0 2.0 0.00 0.00 0.00 58 1008.0
20260905174137 95 336 2.0 3.0 0.00 0.00 0.00 58 1008.3
20260905173632 94 76 0.0 1.0 0.00 0.00 0.00 59 1008.2
20260905173128 94 65 2.0 3.0 0.00 0.00 0.00 60 1008.4
20260905172627 94 333 2.0 3.0 0.00 0.00 0.00 60 1008.4
20260905172122 94 326 1.0 2.0 0.00 0.00 0.00 60 1008.4
20260905171618 94 150 2.0 3.0 0.00 0.00 0.00 60 1008.4
20260905171114 94 349 3.0 5.0 0.00 0.00 0.00 63 1008.4
20260905170610 0 0.0 0.0 0.00 0.00 0.00 1008.4
20260905170105 93 341 3.0 3.0 0.00 0.00 0.00 64 1008.5
20260905165559 93 341 3.0 3.0 0.00 0.00 0.00 64 1008.5
20260905165054 93 75 1.0 2.0 0.00 0.00 0.00 63 1008.7
20260905164549 93 66 3.0 3.0 0.00 0.00 0.00 63 1008.9
20260905164044 0 0.0 0.0 0.00 0.00 0.00 1009.1
20260905163541 93 307 3.0 5.0 0.00 0.00 0.00 64 1009.1
20260905163036 93 307 3.0 5.0 0.00 0.00 0.00 64 1009.0
20260905162533 0 0.0 0.0 0.00 0.00 0.00 1009.2
20260905162026 92 91 1.0 1.0 0.00 0.00 0.00 65 1009.1
20260905161520 92 91 1.0 1.0 0.00 0.00 0.00 65 1009.3
20260905161018 92 91 1.0 1.0 0.00 0.00 0.00 65 1009.4
20260905160512 91 93 3.0 3.0 0.00 0.00 0.00 66 1009.4
20260905160011 91 342 4.0 5.0 0.00 0.00 0.00 66 1009.4
20260905155506 91 157 4.0 6.0 0.00 0.00 0.00 67 1009.5
20260905155004 91 320 7.0 8.0 0.00 0.00 0.00 66 1009.7
20260905154500 91 2 3.0 5.0 0.00 0.00 0.00 67 1009.5
20260905153955 91 320 1.0 2.0 0.00 0.00 0.00 67 1009.8
20260905153451 91 219 3.0 5.0 0.00 0.00 0.00 67 1009.8
20260905152950 91 126 1.0 2.0 0.00 0.00 0.00 68 1009.7
20260905152445 90 348 3.0 3.0 0.00 0.00 0.00 69 1009.6
20260905151939 90 358 4.0 5.0 0.00 0.00 0.00 68 1009.9
20260905151435 90 308 4.0 6.0 0.00 0.00 0.00 69 1009.8
20260905150931 90 311 4.0 6.0 0.00 0.00 0.00 70 1009.9
20260905150430 90 341 2.0 2.0 0.00 0.00 0.00 70 1010.0
20260905145926 89 18 2.0 3.0 0.00 0.00 0.00 70 1009.9
20260905145421 89 325 2.0 3.0 0.00 0.00 0.00 71 1010.0
20260905144915 89 328 2.0 2.0 0.00 0.00 0.00 71 1010.0
20260905144411 89 11 4.0 6.0 0.00 0.00 0.00 72 1010.0
20260905143909 88 32 2.0 2.0 0.00 0.00 0.00 73 1010.0
20260905143404 88 39 3.0 3.0 0.00 0.00 0.00 73 1010.1
20260905142903 87 327 3.0 3.0 0.00 0.00 0.00 74 1010.1
20260905142401 87 322 2.0 2.0 0.00 0.00 0.00 75 1010.1
20260905141858 87 58 1.0 1.0 0.00 0.00 0.00 75 1010.0
20260905141353 86 111 1.0 1.0 0.00 0.00 0.00 76 1009.9
20260905140849 86 50 1.0 2.0 0.00 0.00 0.00 77 1010.1
20260905140349 86 328 2.0 2.0 0.00 0.00 0.00 77 1010.0
20260905135847 85 39 2.0 2.0 0.00 0.00 0.00 78 1010.0
20260905135343 85 331 2.0 3.0 0.00 0.00 0.00 79 1010.1
20260905134839 85 329 3.0 5.0 0.00 0.00 0.00 80 1010.2
20260905134337 84 44 1.0 2.0 0.00 0.00 0.00 80 1010.0
20260905133833 84 26 2.0 2.0 0.00 0.00 0.00 81 1010.2
20260905133328 84 37 0.0 1.0 0.00 0.00 0.00 82 1010.3
20260905132827 83 333 1.0 2.0 0.00 0.00 0.00 83 1010.3
20260905132323 83 44 1.0 2.0 0.00 0.00 0.00 84 1010.3
20260905131817 82 356 2.0 2.0 0.00 0.00 0.00 84 1010.3
20260905131313 82 319 3.0 3.0 0.00 0.00 0.00 85 1010.2
20260905130808 81 34 1.0 1.0 0.00 0.00 0.00 87 1010.2
20260905130306 81 347 1.0 2.0 0.00 0.00 0.00 88 1010.3
20260905125802 80 43 1.0 2.0 0.00 0.00 0.00 90 1010.7
20260905125256 80 134 1.0 2.0 0.00 0.00 0.00 91 1010.5
20260905124753 80 333 4.0 6.0 0.00 0.00 0.00 91 1010.6
20260905124249 80 359 2.0 3.0 0.00 0.00 0.00 91 1010.5
20260905123744 79 26 1.0 1.0 0.00 0.00 0.00 92 1010.5
20260905123241 79 16 2.0 2.0 0.00 0.00 0.00 92 1010.3
20260905122740 78 82 0.0 1.0 0.00 0.00 0.00 92 1010.6
20260905122234 78 345 2.0 3.0 0.00 0.00 0.00 92 1010.2
20260905121730 78 73 2.0 3.0 0.00 0.00 0.00 92 1010.3
20260905121226 78 15 1.0 2.0 0.00 0.00 0.00 92 1010.4
20260905120725 78 345 4.0 5.0 0.00 0.00 0.00 92 1010.3
20260905120220 78 0 1.0 1.0 0.00 0.00 0.00 92 1010.1
20260905115719 78 70 1.0 1.0 0.00 0.00 0.00 92 1010.2
20260905115214 78 36 0.0 0.0 0.00 0.00 0.00 92 1010.4
20260905114708 77 39 1.0 2.0 0.00 0.00 0.00 92 1010.3
20260905114206 77 76 1.0 2.0 0.00 0.00 0.00 92 1010.2
20260905113701 77 65 1.0 1.0 0.00 0.00 0.00 92 1010.2
20260905113157 77 71 0.0 1.0 0.00 0.00 0.00 92 1010.1
20260905112656 77 342 0.0 1.0 0.00 0.00 0.00 92 1010.1